Regional Weather Roundup
Issued by NWS

Home | Current Version | Previous Version | Graphics & Text | Print | Product List | Glossary On
Versions: 1 2 3 4 5 6 7 8 9 10 11 12 13 14 15 16 17 18 19 20 21 22 23 24 25 26 27 28 29 30 31 32 33 34 35 36 37 38 39 40 41 42 43 44 45 46 47 48 49 50
000
ASUS45 KCYS 262210
RWRWY

WYOMING REGIONAL WEATHER ROUNDUP
NATIONAL WEATHER SERVICE CHEYENNE WY
400 PM MDT TUE MAY 26 2015

NOTE:  "FAIR" INDICATES FEW OR NO CLOUDS BELOW 12,000 FEET
WITH NO SIGNIFICANT WEATHER AND/OR OBSTRUCTIONS TO VISIBILITY.

WYZ001-262300-
YELLOWSTONE NATIONAL PARK

CITY           SKY/WX    TMP DP  RH WIND       PRES   REMARKS
LK YELLOWSTONE   N/A     47  35  63 VRB6      30.13R
W YELLOWSTONE  NOT AVBL

$$
WYZ002>013-054>058-071-098>099-262300-
NORTHERN WYOMING

CITY           SKY/WX    TMP DP  RH WIND       PRES   REMARKS
JACKSON        CLOUDY    48  46  93 SE9       30.09R
CODY           CLOUDY    55  45  67 NW9       29.97R THUNDER
GREYBULL       FAIR      74  40  29 SW7       29.87F
WORLAND        FAIR      70  45  40 VRB3      29.91S
SHERIDAN       PTSUNNY   64  50  60 S10       29.95F
BUFFALO        FAIR      65  44  46 VRB3      29.99S
GILLETTE       FAIR      67  47  48 SE10      29.92F THUNDER
HULETT         FAIR      64  50  59 E10       29.97S
NEWCASTLE      FAIR      68  45  42 S8        29.97F THUNDER

$$
WYZ014>020-022>026-101>103-262300-
CENTRAL WYOMING

CITY           SKY/WX    TMP DP  RH WIND       PRES   REMARKS
BIG PINEY      CLOUDY    53  42  66 NW15      30.08S
PINEDALE       LGT RAIN  52  45  76 NE5       30.08S
DUBOIS         MOCLDY    57  37  47 NW13G18   30.04S
LANDER         NOT AVBL
RIVERTON       FAIR      67  40  37 E7        29.97S
CASPER         PTSUNNY   66  42  41 W12       29.96F
DOUGLAS        FAIR      66  48  52 S9        29.97F

$$
WYZ021-027>030-104>119-262300-
SOUTHERN WYOMING

CITY           SKY/WX    TMP DP  RH WIND       PRES   REMARKS
EVANSTON       PTSUNNY   54  46  74 W8        30.09F
KEMMERER       FAIR      55  39  54 SW16      30.09S
FORT BRIDGER   MOCLDY    55  45  67 W8        30.12F THUNDER
ROCK SPRINGS   PTSUNNY   61  40  45 W14       30.04F
DIXON          CLOUDY    60  42  52 S15G23    30.09R
RAWLINS        LGT RAIN  55  42  61 W20       30.05S
SARATOGA       FAIR      64  36  34 W14       30.07S
LARAMIE        CLOUDY    59  42  53 SW17      30.06F
CHEYENNE       PTSUNNY   59  44  57 SE9       30.04F
TORRINGTON     FAIR      66  47  50 SE10      29.96F
PINE BLUFFS    FAIR      61  46  59 S6        30.03F

$$


USA.gov is the U.S. government's official web portal to all federal, state and local government web resources and services.